Flag for Netherlands Weather past 2 weeks in Breda, Netherlands

Now
55 °F

Light rain. Broken clouds.


Feels Like: 54 °F
Forecast: 46 / 62 °F
Wind: 6 mph from South

Location: Gilze-Rijen

Current Time: Sep 2, 2015 at 11:06:01 AM

Latest Report: Sep 2, 2015 at 10:25 AM


Visibility: N/A

Pressure: 30.04 "Hg

Humidity: 88%

Dew point: 52 °F

Location of BredaLocation

Historic Weather in Breda — Graph

°F

Breda temperature yesterday

Maximum temperature yesterday: 66 °F (at 2:25 PM)
Minimum temperature yesterday: 54 °F (at 10:55 PM)
Average temperature yesterday: 62 °F

Past Weeks' High & Low Weather Summary

 TemperatureHumidityPressure
High82 °F (Aug 31, 1:55 PM)100% (Aug 18, 10:01 AM)30.21 "Hg (Aug 18, 10:01 AM)
Low48 °F (Aug 29, 7:03 AM)34% (Aug 23, 2:55 PM)29.45 "Hg (Aug 24, 4:25 PM)
Average65 °F78%29.94 "Hg
* Reported Aug 18 10:01 AM — Sep 2 10:00 AM, Breda, Weather by CustomWeather, © 2015

Note: Actual official high and low records may vary slightly from our data, if they occured in-between our weather recording intervals... More about our weather records

Advertising

Breda weather history for previous 24 hours

 ConditionsComfort  
Time TempWeatherWind HumidityBarometerVisibility
10:00 AM
Wed, Sep 2
55 °FRain showers. Cloudy.5 mph88%30.01 "HgN/A
9:25 AM55 °FDrizzle. Broken clouds.5 mph94%30.01 "HgN/A
8:55 AM55 °FLight rain. Broken clouds.5 mph94%30.01 "HgN/A
8:25 AM54 °FLots of rain. Cloudy.6 mph100%30.04 "Hg3 mi
7:59 AM54 °FRain showers. Partly sunny.5 mph100%30.01 "Hg4 mi
7:25 AM54 °FOvercast.6 mph94%30.01 "HgN/A
6:55 AM52 °FOvercast.5 mph100%30.01 "HgN/A
6:25 AM52 °FMostly cloudy.3 mph94%30.04 "HgN/A
5:55 AM50 °FMostly cloudy.5 mph100%30.04 "HgN/A
5:25 AM50 °FOvercast.6 mph100%30.04 "HgN/A
4:55 AM50 °FPassing clouds.5 mph100%30.04 "HgN/A
4:25 AM50 °FCool.3 mph100%30.04 "HgN/A
3:55 AM50 °FCool.3 mph100%30.04 "HgN/A
3:25 AM50 °FCool.5 mph100%30.04 "HgN/A
2:55 AM52 °FCool.3 mph94%30.04 "HgN/A
2:25 AM52 °FCool.5 mph94%30.07 "HgN/A
1:55 AM50 °FCool.5 mph100%30.07 "HgN/A
1:25 AM52 °FPassing clouds.3 mph94%30.07 "HgN/A
12:55 AM52 °FCool.3 mph100%30.07 "HgN/A
11:25 PM
Tue, Sep 1
54 °FCool.3 mph94%30.04 "HgN/A
10:55 PM54 °FCool.3 mph94%30.04 "HgN/A
10:25 PM55 °FClear.3 mph88%30.04 "HgN/A
9:55 PM55 °FCool.3 mph88%30.04 "HgN/A
9:25 PM55 °FCool.5 mph82%30.04 "HgN/A
8:55 PM57 °FCool.6 mph82%30.04 "HgN/A
8:25 PM59 °FCool.9 mph77%30.04 "HgN/A
7:55 PM61 °FCool.10 mph72%30.01 "HgN/A
7:25 PM63 °FClear.13 mph64%30.01 "HgN/A
6:55 PM63 °FMild.12 mph64%30.01 "HgN/A
6:25 PM64 °FMild.13 mph60%30.01 "HgN/A
5:55 PM64 °FPassing clouds.15 mph64%29.98 "HgN/A
5:25 PM66 °FMild.16 mph64%29.98 "HgN/A
4:55 PM66 °FMild.16 mph60%29.98 "HgN/A
4:25 PM66 °FPassing clouds.16 mph64%29.98 "HgN/A
3:55 PM66 °FPassing clouds.12 mph64%29.98 "HgN/A
3:25 PM66 °FPartly sunny.10 mph64%29.95 "HgN/A
2:55 PM66 °FScattered clouds.15 mph64%29.95 "HgN/A
2:25 PM66 °FPartly sunny.13 mph68%29.95 "HgN/A
1:55 PM64 °FMostly cloudy.10 mph73%29.95 "HgN/A
1:25 PM63 °FLight rain. Broken clouds.10 mph77%29.95 "HgN/A
1:03 PM64 °FBroken clouds.10 mph73%29.92 "HgN/A
12:25 PM64 °FScattered clouds.9 mph73%29.92 "HgN/A
11:59 AM63 °FPartly sunny.12 mph77%29.92 "HgN/A
11:25 AM63 °FBroken clouds.12 mph77%29.89 "HgN/A
Weather by CustomWeather, © 2015

See weather overviewHow to use our weather pages